sat.trackr.live / text

‹ back to catalog

STARLINK-2380

NORAD 47799 · 2021-018N

PAYLOAD ACTIVE UNKNOWN

§ Identity

Operator
Country
US
Launch date
2021-03-11
Launch site
AFETR
Launch vehicle
Mass (kg)
RCS (m²)

Purposes: comms

External: N2YO · Heavens-Above · Gunter

§ Orbital elements

Epoch: 2026-05-25T05:22:43.951584Z

Period
94.01 min
Inclination
53.1582°
Eccentricity
0.0001440
Mean motion
15.31704328 rev/d
Perigee alt
469.7 km
Apogee alt
471.7 km
Semi-major
6,848.9 km
B*
7.3034e-5
RAAN
236.1812°
Arg perigee
94.4527°
Mean anomaly
265.6639°
Rev number
28,858

§ Raw data

STARLINK-23801 47799U 21018N   26145.22411981  .00001902  00000+0  73034-4 0  99962 47799  53.1582 236.1812 0001440  94.4527 265.6639 15.31704328288587

JSON: /api/v1/satellites/47799 · /tle

For live sub-satellite position, see the globe view (requires WebGL).

§ Visibility from observer

Set your observer location to see the next 7 days of passes ≥ 10°. The values pass through the URL so the page stays shareable.

No JS? Fill the form by hand. The geolocation button needs JavaScript.